Location: Bli��� Lhota
(48.7570°N, 14.0120°E)
Time: 04:56:01
(UTC+00:00)

Cosmos 2227 Rocket - Pass Details

Date: 18 September 2020
Orbit: 840 x 844 km, 71.0° (Epoch: 22 October)

Event Time Altitude Azimuth Distance (km) Brightness Sun altitude
Rises 23:35:28 0° 336° (NNW) 3,406 6.0 -39.2°
Reaches altitude 10° 23:38:28 10° 351° (N) 2,468 5.2 -39.1°
Maximum altitude 23:42:52 23° 42° (NE) 1,737 4.2 -38.9°
Enters shadow 23:43:08 23° 46° (NE) 1,740 4.2 -38.9°
